sat.trackr.live / text

‹ back to catalog

STARLINK-30842

NORAD 58357 · 2023-177G

PAYLOAD ACTIVE UNKNOWN

§ Identity

Operator
Country
US
Launch date
2023-11-18
Launch site
AFETR
Launch vehicle
Mass (kg)
RCS (m²)

Purposes: comms

External: N2YO · Heavens-Above · Gunter

§ Orbital elements

Epoch: 2026-09-20T22:00:03.000096Z

Period
94.37 min
Inclination
43.0005°
Eccentricity
0.0001768
Mean motion
15.25919731 rev/d
Perigee alt
486.8 km
Apogee alt
489.2 km
Semi-major
6,866.2 km
B*
-5.7936e-4
RAAN
312.9156°
Arg perigee
262.6572°
Mean anomaly
36.4975°
Rev number
587

§ Raw data

STARLINK-308421 58357U 23177G   26263.91670139 -.00015386  00000+0 -57936-3 0  99902 58357  43.0005 312.9156 0001768 262.6572  36.4975 15.25919731  5878

JSON: /api/v1/satellites/58357 · /tle

For live sub-satellite position, see the globe view (requires WebGL).

§ Visibility from observer

Set your observer location to see the next 7 days of passes ≥ 10°. The values pass through the URL so the page stays shareable.

No JS? Fill the form by hand. The geolocation button needs JavaScript.